Location: Harwich
(41.7160°N, 69.9939°W)
Time: 03:16:43
(UTC+02:00)

AO-27 - Pass Details

Date: 25 September 2024
Orbit: 783 x 796 km, 98.8° (Epoch: 04 October)

Event Time Altitude Azimuth Distance (km) Brightness Sun altitude
Exits shadow 02:09:10 21° 58° (ENE) 1,736 9.1 -18.6°
Drops below altitude 10° 02:12:39 10° 16° (NNE) 2,361 10.1 -19.2°
Sets 02:15:29 0° 1° (N) 3,292 11.1 -19.8°
